Home > Weather > Dallas > Past weeks

Flag for USA Past Weather in Dallas, Texas, USA — Yesterday and Last 2 Weeks

Now
72 °F

Passing clouds.


Feels Like: 74 °F
Forecast: 74 / 89 °F
Wind: 9 mph from South

Location: Dallas Love Field

Current Time: May 27, 2016 at 9:17:33 PM

Latest Report: May 27, 2016 at 8:53 PM


Visibility: 10 mi

Pressure: 29.74 "Hg

Humidity: 73%

Dew Point: 63 °F

Location of DallasLocation

Past Weather in Dallas — Graph

°F

Dallas Temperature Yesterday

Maximum temperature yesterday: 81 °F (at 12:53 PM)
Minimum temperature yesterday: 67 °F (at 11:53 PM)
Average temperature yesterday: 77 °F

High & Low Weather Summary for the Past Weeks

 TemperatureHumidityPressure
High86 °F (May 24, 5:53 PM)96% (May 19, 3:53 AM)30.21 "Hg (May 19, 3:53 AM)
Low58 °F (May 18, 6:53 AM)32% (May 13, 3:53 PM)29.65 "Hg (May 27, 3:53 AM)
Average73 °F70%29.97 "Hg
* Reported May 12 7:53 PM — May 27 7:53 PM, Dallas, Weather by CustomWeather, © 2016

Note: Actual official high and low records may vary slightly from our data, if they occured in-between our weather recording intervals... More about our weather records

Advertising

Dallas Weather History for the Previous 24 Hours

Scroll right to see more
 ConditionsComfort  
Time TempWeatherWind HumidityBarometerVisibility
7:53 PM
Fri, May 27
74 °FScattered clouds.15 mph67%29.72 "Hg10 mi
6:53 PM78 °FPartly sunny.16 mph56%29.71 "Hg10 mi
5:53 PM79 °FPartly sunny.15 mph56%29.71 "Hg10 mi
4:53 PM81 °FPartly sunny.13 mph53%29.71 "Hg10 mi
3:53 PM80 °FPartly sunny.16 mph54%29.71 "Hg10 mi
2:53 PM78 °FPartly sunny.15 mph62%29.70 "Hg10 mi
1:53 PM75 °FBroken clouds.13 mph71%29.71 "Hg10 mi
12:53 PM71 °FPartly sunny.10 mph84%29.73 "Hg10 mi
11:53 AM67 °FLight rain. Cloudy.22 mph90%29.77 "Hg10 mi
10:53 AM67 °FLight rain. More clouds than sun.20 mph93%29.77 "Hg10 mi
9:53 AM68 °FLight rain. More clouds than sun.12 mph93%29.81 "Hg9 mi
8:53 AM68 °FLight rain. More clouds than sun.14 mph93%29.74 "Hg10 mi
7:53 AM67 °FThunderstorms. Overcast.15 mph93%29.70 "Hg8 mi
6:53 AM67 °FThunderstorms. Fog.16 mph90%29.76 "Hg4 mi
5:53 AM67 °FThunderstorms. Fog.8 mph93%29.78 "Hg4 mi
4:53 AM70 °FMostly cloudy.18 mph84%29.68 "Hg10 mi
3:53 AM70 °FMostly cloudy.17 mph87%29.65 "Hg10 mi
2:53 AM71 °FMostly cloudy.13 mph84%29.67 "Hg10 mi
1:53 AM69 °FThunderstorms. Overcast.17 mph87%29.72 "Hg10 mi
12:53 AM67 °FThunderstorms. Mostly cloudy.13 mph93%29.74 "Hg10 mi
11:53 PM
Thu, May 26
67 °FThunderstorms. Mostly cloudy.9 mph93%29.82 "Hg7 mi
10:53 PM74 °FThunderstorms. Mostly cloudy.14 mph79%29.80 "Hg10 mi
9:53 PM73 °FOvercast.14 mph81%29.78 "Hg10 mi
Weather by CustomWeather, © 2016

See weather overviewHow to use our weather pages